"startDT [UTC]","vpos","CH4 [ppm]","stdev(CH4) [ppm]","CO2 [ppm]","stdev(CO2) [ppm]","H2O_reported [%]","stdev(H2O_reported)","CavityPressure [torr]","CavityTemp [C]","OutletValve","CH4_dry [ppm]","CO2_dry [ppm]","DasTemp [C]","EtalonTemp [C]","WarmBoxTemp [C]","MPVPosition","T_ECpre [C]","T_EC1 [C]","T_EC2 [C]","p_inlet [hPa]","p_in [hPa]","p_out [hPa]","T_inlet [C]","RH_inlet [%]","dwpt_inlet [C]","T_vent [C]","RH_vent [%]","dwpt_vent [C]","flow_vent [l min-1]","flow_inlet [l min-1]","dwpt_sample [C]","T_room [C]"
2017-03-15 00:00:00,0.0,1.94852,0.00042,410.979,0.038,0.3045,0.0017,140.001,45.000,31572.18710,1.95439,412.495,32.868,45.073,45.000,0.00,0.07,-272.89,-272.92,-8,533,-930,21.9,8.4,-13.2,21.6,8.8,-13.0,0.41,1.83,-11.7,26.3
2017-03-15 00:01:00,0.0,1.94853,0.00037,410.986,0.024,0.3021,0.0018,140.002,45.000,31573.20394,1.95441,412.493,32.875,45.072,45.000,0.00,0.07,-272.88,-272.92,-8,533,-930,21.9,8.4,-13.3,21.6,8.7,-13.0,0.41,1.77,-11.8,26.3
2017-03-15 00:02:00,0.0,1.94855,0.00036,410.979,0.025,0.3030,0.0020,140.001,45.000,31571.77153,1.95439,412.489,32.889,45.072,45.000,0.00,0.07,-272.89,-272.92,-8,533,-930,21.9,8.4,-13.3,21.6,8.7,-13.1,0.41,1.74,-11.7,26.3
2017-03-15 00:03:00,0.0,1.94882,0.00036,410.975,0.030,0.3028,0.0020,140.001,45.000,31573.19216,1.95466,412.483,32.915,45.072,45.000,0.00,0.07,-272.89,-272.92,-8,533,-930,21.9,8.4,-13.3,21.5,8.7,-13.1,0.41,1.78,-11.8,26.3
2017-03-15 00:04:00,0.0,1.94856,0.00043,410.977,0.032,0.3053,0.0014,140.000,45.000,31573.41061,1.95450,412.499,32.932,45.072,45.000,0.00,0.07,-272.89,-272.92,-8,533,-930,21.9,8.4,-13.2,21.5,8.8,-13.0,0.41,1.86,-11.8,26.2
2017-03-15 00:05:00,0.0,1.94842,0.00035,410.970,0.037,0.3045,0.0021,140.001,45.000,31574.77517,1.95429,412.488,32.938,45.072,45.000,0.00,0.07,-272.89,-272.92,-8,533,-930,21.9,8.4,-13.2,21.5,8.8,-13.0,0.41,1.88,-11.7,26.2
2017-03-15 00:06:00,0.0,1.94883,0.00038,410.996,0.032,0.3025,0.0015,139.999,45.000,31571.79188,1.95469,412.503,32.939,45.072,45.000,0.00,0.07,-272.89,-272.93,-8,533,-930,21.9,8.4,-13.3,21.5,8.7,-13.1,0.41,1.81,-11.7,26.3
2017-03-15 00:07:00,0.0,1.94861,0.00047,410.997,0.036,0.3035,0.0017,140.001,45.000,31575.30782,1.95445,412.509,32.938,45.072,45.000,0.00,0.07,-272.88,-272.92,-8,533,-930,21.9,8.4,-13.2,21.6,8.7,-13.0,0.41,1.76,-11.7,26.3
2017-03-15 00:08:00,0.0,1.94863,0.00034,411.017,0.041,0.3031,0.0019,139.999,45.000,31573.69246,1.95451,412.528,32.926,45.072,45.000,0.00,0.07,-272.88,-272.92,-8,533,-930,21.9,8.4,-13.3,21.5,8.7,-13.1,0.41,1.75,-11.7,26.3
2017-03-15 00:09:00,0.0,1.94893,0.00038,410.996,0.041,0.3031,0.0019,140.000,45.000,31574.29685,1.95478,412.506,32.891,45.072,45.000,0.00,0.06,-272.88,-272.92,-8,533,-930,21.9,8.4,-13.3,21.6,8.7,-13.1,0.41,1.79,-11.7,26.3
2017-03-15 00:10:00,0.0,1.94865,0.00046,411.007,0.038,0.3040,0.0016,140.001,45.000,31575.39296,1.95452,412.521,32.880,45.073,45.000,0.00,0.07,-272.89,-272.92,-8,533,-930,21.9,8.4,-13.2,21.6,8.7,-13.0,0.41,1.84,-11.7,26.3
2017-03-15 00:11:00,0.0,1.94897,0.00045,410.981,0.033,0.3070,0.0020,139.998,45.000,31574.04759,1.95492,412.511,32.875,45.073,45.000,0.00,0.07,-272.88,-272.92,-8,533,-930,21.9,8.5,-13.1,21.6,8.8,-12.9,0.41,1.87,-11.8,26.3
2017-03-15 00:12:00,0.0,1.94876,0.00040,410.978,0.032,0.3091,0.0021,140.001,45.000,31573.07014,1.95473,412.520,32.876,45.073,45.000,0.00,0.07,-272.89,-272.92,-8,533,-930,21.9,8.5,-13.0,21.6,8.9,-12.8,0.41,1.85,-11.7,26.3
2017-03-15 00:13:00,0.0,1.94835,0.00049,410.964,0.033,0.3093,0.0022,140.000,45.000,31574.39460,1.95435,412.505,32.879,45.073,45.000,0.00,0.07,-272.89,-272.93,-8,533,-930,21.9,8.5,-13.0,21.6,8.9,-12.8,0.41,1.78,-11.7,26.3
2017-03-15 00:14:00,0.0,1.94863,0.00037,410.972,0.031,0.3101,0.0022,139.997,45.000,31571.36581,1.95462,412.518,32.879,45.073,45.000,0.00,0.07,-272.89,-272.93,-8,533,-930,21.9,8.6,-13.0,21.6,8.9,-12.8,0.41,1.75,-11.7,26.3
2017-03-15 00:15:00,0.0,1.94834,0.00037,410.966,0.026,0.3107,0.0019,140.000,45.000,31573.77405,1.95434,412.515,32.880,45.073,45.000,0.00,0.07,-272.88,-272.92,-8,533,-930,21.9,8.6,-13.0,21.6,8.9,-12.8,0.41,1.78,-11.7,26.3
2017-03-15 00:16:00,0.0,1.94841,0.00036,410.948,0.036,0.3101,0.0013,140.001,45.000,31574.73635,1.95443,412.495,32.912,45.073,45.000,0.00,0.07,-272.89,-272.92,-8,533,-930,21.9,8.6,-13.0,21.6,8.9,-12.7,0.41,1.86,-11.7,26.3
2017-03-15 00:17:00,0.0,1.94841,0.00027,410.949,0.031,0.3102,0.0010,140.000,45.000,31573.99109,1.95441,412.493,32.935,45.072,45.000,0.00,0.07,-272.89,-272.92,-8,533,-930,21.9,8.6,-13.0,21.6,8.9,-12.7,0.41,1.88,-11.7,26.3
2017-03-15 00:18:00,0.0,1.94850,0.00043,410.983,0.027,0.3106,0.0018,140.000,45.000,31574.66580,1.95450,412.532,32.938,45.072,45.000,0.00,0.07,-272.89,-272.92,-8,533,-930,21.9,8.6,-13.0,21.6,8.9,-12.8,0.42,1.84,-11.7,26.3
2017-03-15 00:19:00,0.0,1.94861,0.00038,410.981,0.022,0.3090,0.0019,140.002,45.000,31574.84356,1.95456,412.522,32.935,45.072,45.000,0.00,0.07,-272.89,-272.91,-8,533,-930,21.9,8.5,-13.0,21.6,8.9,-12.8,0.41,1.77,-11.7,26.3
2017-03-15 00:20:00,0.0,1.94838,0.00040,410.986,0.028,0.3071,0.0020,140.002,45.000,31574.43211,1.95434,412.517,32.932,45.072,45.000,0.00,0.07,-272.89,-272.92,-8,534,-930,21.9,8.5,-13.1,21.6,8.9,-12.8,0.41,1.74,-11.7,26.3
2017-03-15 00:21:00,0.0,1.94863,0.00036,410.978,0.030,0.3072,0.0016,140.001,45.000,31572.84046,1.95455,412.510,32.904,45.072,45.000,0.00,0.07,-272.89,-272.92,-8,533,-930,21.9,8.5,-13.1,21.6,8.8,-12.9,0.41,1.78,-11.7,26.3
2017-03-15 00:22:00,0.0,1.94848,0.00039,410.977,0.030,0.3064,0.0018,140.000,45.000,31572.97631,1.95443,412.504,32.899,45.073,45.000,0.00,0.07,-272.89,-272.92,-8,533,-930,21.9,8.5,-13.2,21.6,8.8,-12.9,0.41,1.85,-11.7,26.3
2017-03-15 00:23:00,0.0,1.94860,0.00031,410.998,0.029,0.3046,0.0027,139.999,45.000,31572.45171,1.95448,412.516,32.919,45.073,45.000,0.00,0.07,-272.89,-272.93,-8,533,-930,21.9,8.4,-13.2,21.6,8.8,-12.9,0.41,1.88,-11.7,26.3
2017-03-15 00:24:00,0.0,1.94828,0.00040,410.988,0.037,0.3048,0.0022,140.000,45.000,31573.47196,1.95418,412.507,32.907,45.072,45.000,0.00,0.07,-272.88,-272.93,-8,533,-930,21.9,8.4,-13.2,21.6,8.8,-13.0,0.41,1.85,-11.7,26.3
2017-03-15 00:25:00,0.0,1.94858,0.00036,411.006,0.034,0.2993,0.0015,140.000,45.000,31572.07434,1.95435,412.498,32.924,45.073,45.000,0.00,0.07,-272.88,-272.92,-8,533,-930,21.9,8.3,-13.4,21.6,8.7,-13.1,0.41,1.76,-11.7,26.3
2017-03-15 00:26:00,0.0,1.94879,0.00037,411.003,0.031,0.3010,0.0022,140.001,45.000,31572.16835,1.95461,412.503,32.936,45.073,45.000,0.00,0.07,-272.89,-272.93,-8,533,-930,21.9,8.3,-13.4,21.5,8.7,-13.1,0.41,1.74,-11.7,26.3
2017-03-15 00:27:00,0.0,1.94872,0.00039,411.007,0.028,0.3006,0.0023,140.002,45.000,31572.74347,1.95454,412.505,32.939,45.072,45.000,0.00,0.07,-272.89,-272.92,-8,533,-930,21.9,8.3,-13.4,21.6,8.7,-13.1,0.41,1.79,-11.7,26.3
2017-03-15 00:28:00,0.0,1.94854,0.00047,410.984,0.031,0.3019,0.0021,140.001,45.000,31574.57706,1.95437,412.488,32.948,45.073,45.000,0.00,0.07,-272.89,-272.91,-8,533,-930,21.9,8.4,-13.3,21.5,8.7,-13.1,0.41,1.86,-11.7,26.3
2017-03-15 00:29:00,0.0,1.94872,0.00035,411.008,0.042,0.3021,0.0022,139.999,45.000,31573.26867,1.95457,412.514,32.944,45.072,45.000,0.00,0.07,-272.89,-272.92,-8,533,-930,21.9,8.4,-13.3,21.6,8.7,-13.1,0.41,1.87,-11.7,26.3
2017-03-15 00:30:00,0.0,1.94859,0.00042,410.984,0.026,0.3021,0.0018,140.001,45.000,31573.71414,1.95442,412.489,32.941,45.073,45.000,0.00,0.07,-272.90,-272.92,-8,533,-930,21.9,8.4,-13.3,21.5,8.7,-13.1,0.40,1.79,-11.7,26.3
2017-03-15 00:31:00,0.0,1.94874,0.00042,411.003,0.033,0.2998,0.0026,140.002,45.000,31574.96685,1.95453,412.498,32.938,45.073,45.000,0.00,0.07,-272.88,-272.92,-8,533,-930,21.9,8.3,-13.4,21.6,8.7,-13.1,0.41,1.75,-11.7,26.3
2017-03-15 00:32:00,0.0,1.94855,0.00044,410.983,0.034,0.2989,0.0018,140.000,45.000,31576.72342,1.95434,412.471,32.929,45.073,45.000,0.00,0.07,-272.88,-272.92,-8,533,-930,21.9,8.3,-13.4,21.6,8.6,-13.2,0.41,1.74,-11.7,26.3
2017-03-15 00:33:00,0.0,1.94884,0.00038,410.978,0.030,0.2999,0.0018,140.001,45.000,31575.94135,1.95463,412.473,32.921,45.073,45.000,0.00,0.06,-272.89,-272.92,-8,533,-930,21.9,8.3,-13.4,21.6,8.6,-13.1,0.41,1.79,-11.7,26.3
2017-03-15 00:34:00,0.0,1.94860,0.00038,410.990,0.034,0.3015,0.0015,140.000,45.000,31574.58804,1.95443,412.492,32.877,45.072,45.000,0.00,0.07,-272.88,-272.91,-8,533,-930,21.9,8.4,-13.3,21.6,8.7,-13.0,0.41,1.84,-11.7,26.3
2017-03-15 00:35:00,0.0,1.94844,0.00037,410.992,0.021,0.3020,0.0014,140.002,45.000,31575.19121,1.95431,412.497,32.875,45.073,45.000,0.00,0.07,-272.88,-272.91,-8,533,-930,21.9,8.4,-13.3,21.6,8.7,-13.0,0.41,1.87,-11.7,26.3
2017-03-15 00:36:00,0.0,1.94852,0.00034,411.018,0.029,0.3009,0.0018,139.999,45.000,31573.73289,1.95430,412.518,32.870,45.073,45.000,0.00,0.07,-272.89,-272.92,-8,534,-930,21.9,8.3,-13.3,21.6,8.7,-13.1,0.41,1.84,-11.7,26.3
2017-03-15 00:37:00,0.0,1.94856,0.00040,411.002,0.040,0.3040,0.0022,140.002,45.000,31575.35569,1.95446,412.517,32.841,45.073,45.000,0.00,0.07,-272.89,-272.93,-8,533,-930,21.9,8.4,-13.2,21.6,8.7,-13.0,0.41,1.78,-11.7,26.2
2017-03-15 00:38:00,0.0,1.94875,0.00043,410.995,0.030,0.3058,0.0018,139.999,45.000,31572.12632,1.95465,412.518,32.860,45.073,45.000,0.00,0.07,-272.88,-272.92,-8,533,-930,21.9,8.5,-13.2,21.6,8.8,-13.0,0.41,1.74,-11.7,26.2
2017-03-15 00:39:00,0.0,1.94831,0.00037,410.982,0.036,0.3073,0.0018,140.000,45.000,31573.95207,1.95425,412.515,32.875,45.073,45.000,0.00,0.07,-272.89,-272.92,-8,533,-930,21.9,8.5,-13.1,21.6,8.8,-12.9,0.41,1.76,-11.7,26.2
2017-03-15 00:40:00,0.0,1.94854,0.00041,410.985,0.033,0.3067,0.0021,139.999,45.000,31574.06902,1.95448,412.514,32.880,45.073,45.000,0.00,0.07,-272.89,-272.93,-8,533,-930,21.9,8.5,-13.1,21.6,8.8,-12.9,0.41,1.84,-11.7,26.2
2017-03-15 00:41:00,0.0,1.94837,0.00046,410.942,0.044,0.3100,0.0024,140.002,45.000,31575.84195,1.95437,412.487,32.901,45.073,45.000,0.00,0.07,-272.89,-272.92,-8,533,-930,21.9,8.6,-13.0,21.5,8.9,-12.8,0.41,1.88,-11.7,26.2
2017-03-15 00:42:00,0.0,1.94860,0.00042,410.977,0.028,0.3083,0.0021,140.003,45.000,31575.08118,1.95456,412.513,32.935,45.073,45.000,0.00,0.07,-272.88,-272.92,-8,533,-930,21.9,8.5,-13.1,21.5,8.9,-12.9,0.41,1.83,-11.7,26.2
2017-03-15 00:43:00,0.0,1.94875,0.00038,410.985,0.031,0.3082,0.0021,139.999,45.000,31573.65226,1.95469,412.521,32.936,45.072,45.000,0.00,0.07,-272.89,-272.92,-8,533,-930,21.9,8.5,-13.1,21.5,8.9,-12.9,0.41,1.76,-11.7,26.2
2017-03-15 00:44:00,0.0,1.94857,0.00042,410.985,0.034,0.3099,0.0020,140.001,45.000,31574.12289,1.95459,412.530,32.938,45.072,45.000,0.00,0.07,-272.89,-272.92,-8,533,-930,21.9,8.6,-13.0,21.5,8.9,-12.8,0.41,1.73,-11.7,26.2
2017-03-15 00:45:00,0.0,1.94851,0.00028,410.986,0.036,0.3079,0.0019,139.999,45.000,31576.31094,1.95448,412.522,32.938,45.072,45.000,0.00,0.07,-272.89,-272.91,-8,533,-930,21.9,8.5,-13.1,21.5,8.9,-12.9,0.41,1.80,-11.7,26.2
2017-03-15 00:46:00,0.0,1.94856,0.00036,410.988,0.032,0.3090,0.0016,139.999,45.000,31575.35718,1.95452,412.527,32.938,45.072,45.000,0.00,0.07,-272.89,-272.92,-8,533,-930,21.9,8.6,-13.0,21.5,8.9,-12.8,0.41,1.87,-11.7,26.3
2017-03-15 00:47:00,0.0,1.94840,0.00029,410.989,0.033,0.3097,0.0021,140.000,45.000,31576.86686,1.95440,412.532,32.937,45.073,45.000,0.00,0.07,-272.89,-272.93,-8,533,-930,21.9,8.6,-13.0,21.5,8.9,-12.8,0.41,1.86,-11.7,26.2
2017-03-15 00:48:00,0.0,1.94825,0.00040,410.981,0.038,0.3085,0.0018,140.000,45.000,31578.34854,1.95421,412.519,32.918,45.072,45.000,0.00,0.07,-272.88,-272.92,-8,533,-930,21.9,8.5,-13.1,21.5,8.9,-12.8,0.41,1.81,-11.7,26.2
2017-03-15 00:49:00,0.0,1.94840,0.00046,410.985,0.019,0.3087,0.0020,140.000,45.000,31576.44153,1.95435,412.525,32.884,45.072,45.000,0.00,0.07,-272.88,-272.92,-8,533,-930,21.9,8.5,-13.1,21.6,8.9,-12.8,0.41,1.76,-11.7,26.2
2017-03-15 00:50:00,0.0,1.94816,0.00053,410.985,0.036,0.3106,0.0020,140.001,45.000,31578.20850,1.95421,412.533,32.876,45.073,45.000,0.00,0.06,-272.89,-272.93,-8,533,-930,21.9,8.6,-13.0,21.6,8.9,-12.8,0.41,1.74,-11.7,26.2
2017-03-15 00:51:00,0.0,1.94808,0.00035,410.972,0.034,0.3076,0.0021,139.999,45.000,31577.93643,1.95398,412.505,32.835,45.073,45.000,0.00,0.07,-272.89,-272.92,-8,533,-930,21.9,8.5,-13.1,21.6,8.9,-12.8,0.41,1.78,-11.7,26.3
2017-03-15 00:52:00,0.0,1.94815,0.00042,410.973,0.035,0.3089,0.0025,140.003,45.000,31578.05131,1.95416,412.512,32.816,45.073,45.000,0.00,0.07,-272.89,-272.92,-8,533,-930,21.9,8.5,-13.1,21.6,8.9,-12.8,0.41,1.82,-11.7,26.2
2017-03-15 00:53:00,0.0,1.94806,0.00041,411.000,0.029,0.3092,0.0017,139.999,45.000,31577.24110,1.95404,412.541,32.817,45.073,45.000,0.00,0.07,-272.89,-272.93,-8,533,-930,21.9,8.5,-13.1,21.6,8.9,-12.8,0.41,1.87,-11.7,26.2
2017-03-15 00:54:00,0.0,1.94820,0.00035,410.973,0.030,0.3112,0.0020,139.998,45.000,31574.71706,1.95418,412.523,32.846,45.073,45.000,0.00,0.07,-272.89,-272.93,-8,533,-930,21.9,8.6,-13.0,21.6,8.9,-12.8,0.41,1.86,-11.7,26.2
2017-03-15 00:55:00,0.0,1.94836,0.00029,410.999,0.037,0.3104,0.0013,140.003,45.000,31575.31925,1.95438,412.547,32.863,45.073,45.000,0.00,0.07,-272.88,-272.92,-8,533,-930,21.9,8.6,-13.0,21.5,8.9,-12.8,0.41,1.79,-11.7,26.2
2017-03-15 00:56:00,0.0,1.94812,0.00036,410.971,0.029,0.3124,0.0015,140.002,45.000,31575.20636,1.95416,412.527,32.876,45.073,45.000,0.00,0.07,-272.88,-272.92,-8,533,-930,21.9,8.6,-12.9,21.5,9.0,-12.7,0.41,1.73,-11.7,26.2
2017-03-15 00:57:00,0.0,1.94843,0.00045,410.979,0.035,0.3132,0.0017,140.004,45.000,31575.38540,1.95446,412.540,32.876,45.072,45.000,0.00,0.07,-272.89,-272.93,-8,533,-930,21.9,8.6,-12.9,21.5,9.0,-12.7,0.41,1.76,-11.7,26.2
2017-03-15 00:58:00,0.0,1.94840,0.00041,410.978,0.030,0.3133,0.0015,140.001,45.000,31573.13671,1.95449,412.539,32.902,45.072,45.000,0.00,0.07,-272.88,-272.92,-8,533,-930,21.9,8.6,-12.9,21.5,9.0,-12.7,0.41,1.85,-11.7,26.3
2017-03-15 00:59:00,0.0,1.94803,0.00040,410.962,0.037,0.3109,0.0020,139.999,45.000,31573.27167,1.95403,412.513,32.929,45.072,45.000,0.00,0.07,-272.89,-272.92,-8,533,-930,21.9,8.6,-13.0,21.5,9.0,-12.7,0.41,1.88,-11.7,26.2
2017-03-15 01:00:00,0.0,1.94821,0.00056,410.984,0.021,0.3116,0.0016,140.000,45.000,31573.46906,1.95425,412.537,32.931,45.072,45.000,0.00,0.06,-272.89,-272.92,-8,533,-930,21.9,8.6,-12.9,21.5,8.9,-12.8,0.41,1.83,-11.7,26.2
2017-03-15 01:01:00,0.0,1.94834,0.00039,411.000,0.036,0.3119,0.0024,140.001,45.000,31572.94990,1.95434,412.554,32.937,45.072,45.000,0.00,0.07,-272.89,-272.92,-8,533,-930,21.9,8.6,-12.9,21.5,9.0,-12.7,0.41,1.76,-11.7,26.2
2017-03-15 01:02:00,0.0,1.94827,0.00038,410.990,0.028,0.3097,0.0016,140.000,45.000,31574.20337,1.95425,412.535,32.937,45.072,45.000,0.00,0.07,-272.88,-272.91,-8,533,-930,21.9,8.6,-13.0,21.5,8.9,-12.8,0.41,1.74,-11.7,26.2
2017-03-15 01:03:00,0.0,1.94838,0.00041,410.986,0.035,0.3103,0.0018,139.998,45.000,31573.39477,1.95440,412.531,32.931,45.072,45.000,0.00,0.06,-272.89,-272.92,-8,533,-930,21.9,8.6,-13.0,21.5,8.9,-12.8,0.41,1.80,-11.7,26.2
2017-03-15 01:04:00,0.0,1.94831,0.00037,411.001,0.030,0.3120,0.0016,140.000,45.000,31574.27588,1.95434,412.558,32.937,45.072,45.000,0.00,0.07,-272.89,-272.93,-8,533,-930,21.9,8.6,-12.9,21.5,9.0,-12.7,0.41,1.88,-11.7,26.2
2017-03-15 01:05:00,0.0,1.94810,0.00044,410.990,0.035,0.3116,0.0024,140.000,45.000,31575.41597,1.95411,412.542,32.938,45.073,45.000,0.00,0.07,-272.88,-272.92,-8,533,-930,21.9,8.6,-12.9,21.5,9.0,-12.7,0.41,1.86,-11.7,26.3
2017-03-15 01:06:00,0.0,1.94840,0.00029,410.962,0.029,0.3103,0.0018,140.001,45.000,31573.95313,1.95441,412.510,32.940,45.073,45.000,0.00,0.07,-272.89,-272.92,-8,533,-930,21.9,8.6,-13.0,21.5,8.9,-12.8,0.41,1.79,-11.7,26.3
2017-03-15 01:07:00,0.0,1.94833,0.00045,410.977,0.042,0.3099,0.0017,139.998,45.000,31574.37561,1.95431,412.523,32.938,45.073,45.000,0.00,0.07,-272.89,-272.93,-8,533,-930,21.9,8.6,-13.0,21.5,8.9,-12.8,0.41,1.74,-11.7,26.3
2017-03-15 01:08:00,0.0,1.94861,0.00026,410.997,0.026,0.3086,0.0016,140.001,45.000,31574.42201,1.95457,412.534,32.937,45.073,45.000,0.00,0.07,-272.89,-272.92,-8,533,-930,21.9,8.5,-13.1,21.6,8.9,-12.8,0.41,1.76,-11.7,26.2
2017-03-15 01:09:00,0.0,1.94854,0.00051,410.971,0.032,0.3097,0.0026,140.000,45.000,31574.53058,1.95453,412.514,32.922,45.073,45.000,0.00,0.07,-272.89,-272.92,-8,533,-930,21.9,8.6,-13.0,21.6,8.9,-12.8,0.41,1.82,-11.6,26.2
2017-03-15 01:10:00,0.0,1.94841,0.00025,410.979,0.024,0.3088,0.0030,140.001,45.000,31574.63899,1.95440,412.519,32.879,45.073,45.000,0.00,0.07,-272.90,-272.92,-8,533,-930,21.9,8.5,-13.1,21.6,8.9,-12.8,0.41,1.86,-11.7,26.2
2017-03-15 01:11:00,0.0,1.94831,0.00046,410.998,0.030,0.3054,0.0018,140.000,45.000,31574.40299,1.95419,412.519,32.873,45.073,45.000,0.00,0.07,-272.89,-272.93,-8,533,-930,21.9,8.5,-13.2,21.6,8.8,-12.9,0.41,1.85,-11.7,26.2
2017-03-15 01:12:00,0.0,1.94833,0.00046,411.000,0.042,0.3079,0.0021,140.000,45.000,31575.12386,1.95430,412.535,32.870,45.073,45.000,0.00,0.07,-272.88,-272.92,-8,533,-930,21.9,8.5,-13.1,21.6,8.8,-12.9,0.41,1.81,-11.7,26.2
2017-03-15 01:13:00,0.0,1.94817,0.00043,410.998,0.028,0.3083,0.0016,140.000,45.000,31575.11093,1.95415,412.535,32.850,45.073,45.000,0.00,0.07,-272.89,-272.93,-8,533,-930,21.9,8.5,-13.1,21.6,8.8,-12.9,0.41,1.77,-11.7,26.2
2017-03-15 01:14:00,0.0,1.94862,0.00035,411.016,0.039,0.3080,0.0031,140.001,45.000,31573.27752,1.95455,412.551,32.826,45.073,45.000,0.00,0.06,-272.89,-272.92,-8,533,-930,21.9,8.5,-13.1,21.6,8.8,-12.9,0.41,1.74,-11.7,26.3
2017-03-15 01:15:00,0.0,1.94829,0.00043,410.965,0.028,0.3114,0.0014,140.002,45.000,31573.11545,1.95432,412.518,32.813,45.073,45.000,0.00,0.07,-272.88,-272.91,-8,533,-930,21.9,8.6,-13.0,21.6,8.9,-12.8,0.41,1.78,-11.7,26.2
2017-03-15 01:16:00,0.0,1.94836,0.00044,410.978,0.027,0.3072,0.0026,140.000,45.000,31570.62956,1.95428,412.509,32.813,45.073,45.000,0.00,0.07,-272.89,-272.92,-8,533,-930,21.9,8.5,-13.1,21.6,8.9,-12.8,0.41,1.85,-11.6,26.2
2017-03-15 01:17:00,0.0,1.94863,0.00044,410.979,0.034,0.3092,0.0019,139.999,45.000,31571.21150,1.95463,412.519,32.834,45.073,45.000,0.00,0.06,-272.90,-272.92,-8,533,-930,21.9,8.5,-13.1,21.6,8.9,-12.9,0.41,1.88,-11.7,26.2
2017-03-15 01:18:00,0.0,1.94833,0.00033,410.943,0.029,0.3080,0.0015,140.001,45.000,31572.56369,1.95427,412.479,32.872,45.073,45.000,0.00,0.07,-272.88,-272.92,-8,533,-930,21.9,8.5,-13.1,21.6,8.9,-12.8,0.41,1.83,-11.6,26.2
2017-03-15 01:19:00,0.0,1.94840,0.00031,410.951,0.027,0.3086,0.0014,139.999,45.001,31572.00185,1.95436,412.489,32.877,45.073,45.000,0.00,0.07,-272.88,-272.92,-8,533,-930,21.9,8.5,-13.1,21.5,8.9,-12.9,0.41,1.75,-11.6,26.2
2017-03-15 01:20:00,0.0,1.94804,0.00031,410.959,0.027,0.3081,0.0018,140.000,45.000,31572.86118,1.95400,412.495,32.907,45.073,45.000,0.00,0.07,-272.89,-272.93,-8,533,-930,21.9,8.5,-13.1,21.5,8.9,-12.9,0.41,1.74,-11.6,26.2
2017-03-15 01:21:00,0.0,1.94825,0.00038,410.959,0.029,0.3079,0.0017,140.000,45.000,31572.58223,1.95420,412.493,32.928,45.072,45.000,0.00,0.07,-272.89,-272.93,-8,533,-930,21.9,8.5,-13.1,21.6,8.8,-12.9,0.41,1.81,-11.6,26.3
2017-03-15 01:22:00,0.0,1.94828,0.00045,410.964,0.033,0.3066,0.0015,140.000,45.000,31572.35353,1.95421,412.492,32.935,45.072,45.000,0.00,0.07,-272.88,-272.92,-8,533,-930,21.9,8.5,-13.1,21.5,8.8,-12.9,0.41,1.87,-11.6,26.3
2017-03-15 01:23:00,0.0,1.94843,0.00036,410.980,0.034,0.3058,0.0020,139.998,45.000,31572.29655,1.95434,412.503,32.938,45.072,45.000,0.00,0.07,-272.89,-272.92,-8,533,-930,21.9,8.4,-13.2,21.6,8.8,-12.9,0.41,1.86,-11.6,26.3
2017-03-15 01:24:00,0.0,1.94851,0.00036,410.976,0.034,0.3091,0.0021,139.999,45.000,31571.90359,1.95449,412.517,32.939,45.072,45.000,0.00,0.07,-272.89,-272.93,-8,533,-930,21.9,8.6,-13.0,21.6,8.9,-12.8,0.41,1.79,-11.6,26.3
2017-03-15 01:25:00,0.0,1.94852,0.00042,410.937,0.048,0.3115,0.0021,140.002,45.000,31574.57694,1.95454,412.491,32.938,45.072,45.000,0.00,0.07,-272.89,-272.92,-8,533,-930,21.9,8.6,-13.0,21.6,8.9,-12.8,0.41,1.74,-11.6,26.3
2017-03-15 01:26:00,0.0,1.94822,0.00040,410.930,0.030,0.3095,0.0017,140.002,45.000,31575.26476,1.95422,412.471,32.938,45.072,45.000,0.00,0.07,-272.88,-272.91,-8,534,-930,21.9,8.5,-13.1,21.6,8.9,-12.8,0.41,1.76,-11.6,26.3
2017-03-15 01:27:00,0.0,1.94823,0.00042,410.927,0.035,0.3123,0.0021,140.001,45.000,31574.52867,1.95425,412.484,32.938,45.072,45.000,0.00,0.07,-272.90,-272.92,-8,534,-930,21.9,8.6,-12.9,21.6,8.9,-12.7,0.41,1.81,-11.6,26.3
2017-03-15 01:28:00,0.0,1.94832,0.00040,410.914,0.028,0.3086,0.0022,139.998,45.000,31574.41398,1.95430,412.453,32.934,45.072,45.000,0.00,0.07,-272.89,-272.92,-8,534,-930,21.9,8.5,-13.1,21.6,8.9,-12.8,0.41,1.86,-11.6,26.3
2017-03-15 01:29:00,0.0,1.94790,0.00035,410.899,0.040,0.3089,0.0028,140.002,45.000,31575.06676,1.95384,412.439,32.916,45.073,45.000,0.00,0.07,-272.88,-272.92,-8,534,-930,21.9,8.5,-13.1,21.6,8.9,-12.8,0.41,1.85,-11.6,26.3
2017-03-15 01:30:00,0.0,1.94817,0.00025,410.906,0.029,0.3080,0.0015,140.001,45.000,31575.05769,1.95414,412.440,32.887,45.073,45.000,0.00,0.06,-272.89,-272.93,-8,534,-930,21.9,8.5,-13.0,21.6,8.9,-12.8,0.41,1.80,-11.6,26.3
2017-03-15 01:31:00,0.0,1.94793,0.00023,410.900,0.030,0.3110,0.0018,140.003,45.000,31574.91395,1.95396,412.450,32.880,45.073,45.000,0.00,0.07,-272.89,-272.93,-8,533,-930,21.9,8.6,-12.9,21.6,8.9,-12.8,0.40,1.73,-11.6,26.3
2017-03-15 01:32:00,0.0,1.94806,0.00035,410.894,0.032,0.3068,0.0031,140.000,45.000,31573.05824,1.95397,412.424,32.876,45.073,45.000,0.00,0.07,-272.88,-272.92,-8,533,-930,21.9,8.5,-13.1,21.6,8.9,-12.8,0.40,1.73,-11.6,26.4
2017-03-15 01:33:00,0.0,1.94818,0.00034,410.907,0.028,0.3029,0.0016,140.003,45.000,31573.23720,1.95403,412.417,32.874,45.073,45.000,0.00,0.07,-272.89,-272.93,-8,533,-930,21.9,8.4,-13.3,21.6,8.7,-13.0,0.40,1.80,-11.6,26.3
2017-03-15 01:34:00,0.0,1.94814,0.00042,410.871,0.031,0.3048,0.0017,140.000,45.000,31575.64099,1.95403,412.390,32.872,45.073,45.000,0.00,0.07,-272.90,-272.93,-8,534,-930,21.9,8.4,-13.2,21.6,8.7,-13.0,0.40,1.85,-11.6,26.3
2017-03-15 01:35:00,0.0,1.94813,0.00039,410.862,0.031,0.3078,0.0019,139.999,45.000,31573.52555,1.95409,412.396,32.875,45.073,45.000,0.00,0.07,-272.89,-272.92,-8,533,-930,21.9,8.5,-13.1,21.6,8.8,-12.9,0.40,1.86,-11.6,26.3
2017-03-15 01:36:00,0.0,1.94814,0.00041,410.861,0.034,0.3084,0.0021,139.997,45.000,31573.05835,1.95410,412.398,32.879,45.073,45.000,0.00,0.07,-272.89,-272.92,-8,533,-930,21.9,8.5,-13.1,21.6,8.8,-12.9,0.41,1.79,-11.6,26.3
2017-03-15 01:37:00,0.0,1.94794,0.00036,410.877,0.047,0.3079,0.0033,139.999,45.000,31572.96494,1.95388,412.410,32.909,45.073,45.000,0.00,0.07,-272.89,-272.93,-8,533,-930,21.9,8.5,-13.1,21.6,8.8,-12.9,0.40,1.73,-11.6,26.3
2017-03-15 01:38:00,0.0,1.94809,0.00035,410.920,0.033,0.3058,0.0020,139.997,45.000,31572.26517,1.95398,412.444,32.916,45.073,45.000,0.00,0.07,-272.89,-272.92,-8,533,-930,21.9,8.5,-13.2,21.6,8.8,-12.9,0.40,1.74,-11.6,26.3
2017-03-15 01:39:00,0.0,1.94814,0.00027,410.885,0.028,0.3067,0.0021,139.999,45.000,31573.89021,1.95407,412.415,32.933,45.073,45.000,0.00,0.07,-272.88,-272.92,-8,533,-930,21.9,8.5,-13.2,21.6,8.8,-12.9,0.40,1.81,-11.6,26.3
2017-03-15 01:40:00,0.0,1.94780,0.00038,410.861,0.033,0.3095,0.0019,140.001,45.000,31574.58882,1.95381,412.403,32.937,45.072,45.000,0.00,0.06,-272.89,-272.92,-8,533,-930,21.9,8.6,-13.0,21.6,8.9,-12.8,0.41,1.87,-11.6,26.3
2017-03-15 01:41:00,0.0,1.94796,0.00027,410.874,0.034,0.3097,0.0015,139.998,45.000,31574.93935,1.95393,412.417,32.938,45.072,45.000,0.00,0.06,-272.89,-272.92,-8,533,-930,21.9,8.6,-13.0,21.6,8.9,-12.8,0.41,1.85,-11.6,26.3
2017-03-15 01:42:00,0.0,1.94789,0.00037,410.856,0.043,0.3092,0.0017,140.000,45.000,31576.41761,1.95388,412.397,32.935,45.072,45.000,0.00,0.07,-272.88,-272.92,-8,533,-930,21.9,8.5,-13.0,21.6,8.9,-12.8,0.41,1.78,-11.6,26.3
2017-03-15 01:43:00,0.0,1.94808,0.00038,410.855,0.026,0.3104,0.0011,140.001,45.000,31575.54949,1.95407,412.402,32.938,45.072,45.000,0.00,0.07,-272.88,-272.92,-8,534,-930,21.9,8.6,-13.0,21.6,8.9,-12.8,0.41,1.75,-11.6,26.3
2017-03-15 01:44:00,0.0,1.94777,0.00039,410.855,0.030,0.3086,0.0033,140.000,45.000,31575.56120,1.95375,412.392,32.935,45.072,45.000,0.00,0.07,-272.89,-272.93,-8,534,-930,21.9,8.5,-13.1,21.6,8.9,-12.8,0.41,1.77,-11.6,26.3
2017-03-15 01:45:00,0.0,1.94781,0.00050,410.843,0.033,0.3086,0.0017,140.001,45.000,31577.01320,1.95377,412.380,32.894,45.072,45.000,0.00,0.07,-272.89,-272.92,-8,534,-930,21.9,8.5,-13.1,21.6,8.9,-12.8,0.41,1.83,-11.6,26.3